OOVSN ENBR-EBBR

Flight info

Callsign OOVSN
Flight time N/A
Altitude 31000
Route TUXIL DCT ZOL DCT UPIGO DCT OMIMA DCT JUIST/N0277F300 DCT SUSET/N0275F290 Z310 WOODY
Aircraft SF50/L-BDGRSWY/LB2U2

Departure

Time 2026-05-06 16:40
Airport Bergen Airport, Flesland (ENBR)

Arrival

Time N/A
Airport Brussels Airport (EBBR)
Time Latitude Longitude Altitude Speed Heading
2026-05-06 16:24 60.30078 5.22841 156 ft 0 kts 90°
2026-05-06 16:35 60.30081 5.22857 156 ft 6 kts 45°
2026-05-06 16:36 60.30088 5.22796 154 ft 16 kts 203°
2026-05-06 16:36 60.29941 5.22696 140 ft 28 kts 197°
2026-05-06 16:36 60.29791 5.22540 142 ft 20 kts 227°
2026-05-06 16:36 60.29751 5.22329 142 ft 13 kts 262°
2026-05-06 16:37 60.29737 5.22168 142 ft 9 kts 262°
2026-05-06 16:37 60.29729 5.22067 142 ft 7 kts 264°
2026-05-06 16:37 60.29729 5.22064 142 ft 0 kts 264°
2026-05-06 16:38 60.29727 5.22023 142 ft 9 kts 263°
2026-05-06 16:38 60.29719 5.21892 143 ft 0 kts 264°
2026-05-06 16:39 60.29715 5.21826 141 ft 16 kts 262°
2026-05-06 16:39 60.29659 5.21710 140 ft 0 kts 169°
2026-05-06 16:39 60.29648 5.21714 140 ft 12 kts 169°
2026-05-06 16:40 60.29369 5.21804 148 ft 67 kts 171°
2026-05-06 16:40 60.28764 5.21993 238 ft 102 kts 179°
2026-05-06 16:40 60.27967 5.22140 455 ft 132 kts 178°
2026-05-06 16:40 60.27026 5.22574 1048 ft 146 kts 169°
2026-05-06 16:41 60.25955 5.22978 1445 ft 167 kts 175°
2026-05-06 16:41 60.24793 5.23326 2098 ft 170 kts 174°
2026-05-06 16:41 60.23618 5.23721 2747 ft 172 kts 173°
2026-05-06 16:41 60.22430 5.24126 3352 ft 175 kts 173°
2026-05-06 16:42 60.21225 5.24532 3944 ft 176 kts 173°
2026-05-06 16:42 60.20422 5.24800 4342 ft 177 kts 173°
2026-05-06 16:42 60.19201 5.25207 4914 ft 179 kts 173°
2026-05-06 16:42 60.17970 5.25623 5465 ft 180 kts 174°
2026-05-06 16:43 60.16677 5.26049 5767 ft 193 kts 173°
2026-05-06 16:43 60.15412 5.26475 6526 ft 181 kts 174°
2026-05-06 16:43 60.14150 5.26891 6953 ft 185 kts 173°
2026-05-06 16:43 60.12874 5.27313 7435 ft 186 kts 173°
2026-05-06 16:44 60.11622 5.27728 7889 ft 187 kts 174°
2026-05-06 16:44 60.10327 5.28155 8348 ft 189 kts 174°
2026-05-06 16:44 60.09016 5.28568 8802 ft 190 kts 176°
2026-05-06 16:44 60.07692 5.28905 9241 ft 193 kts 175°
2026-05-06 16:45 60.05922 5.29403 9837 ft 194 kts 176°
2026-05-06 16:45 60.05015 5.29644 10104 ft 195 kts 176°
2026-05-06 16:45 60.03678 5.30000 10475 ft 197 kts 176°
2026-05-06 16:45 60.02311 5.30370 10861 ft 199 kts 177°
2026-05-06 16:46 60.00933 5.30740 11254 ft 201 kts 177°
2026-05-06 16:46 59.99545 5.31130 11637 ft 203 kts 174°
2026-05-06 16:46 59.98280 5.32481 12008 ft 213 kts 138°
2026-05-06 16:46 59.97295 5.34719 12377 ft 216 kts 132°
2026-05-06 16:47 59.96309 5.37012 12771 ft 218 kts 133°
2026-05-06 16:47 59.95318 5.39326 13152 ft 221 kts 133°
2026-05-06 16:47 59.94316 5.41670 13540 ft 223 kts 133°
2026-05-06 16:47 59.93309 5.44043 13927 ft 226 kts 133°
2026-05-06 16:48 59.92288 5.46465 14279 ft 228 kts 133°
2026-05-06 16:48 59.91269 5.48915 14609 ft 231 kts 133°
2026-05-06 16:48 59.90240 5.51393 14943 ft 233 kts 133°
2026-05-06 16:48 59.89056 5.53445 15239 ft 226 kts 161°
2026-05-06 16:49 59.87538 5.54469 15252 ft 241 kts 172°
2026-05-06 16:49 59.85974 5.55337 15995 ft 223 kts 173°
2026-05-06 16:49 59.84492 5.56223 16410 ft 224 kts 173°
2026-05-06 16:49 59.82989 5.57151 16772 ft 227 kts 173°
2026-05-06 16:50 59.81484 5.58104 17159 ft 228 kts 173°
2026-05-06 16:50 59.79963 5.59093 17526 ft 230 kts 173°
2026-05-06 16:50 59.78441 5.60110 17900 ft 232 kts 173°
2026-05-06 16:50 59.76909 5.61159 18268 ft 234 kts 173°
2026-05-06 16:51 59.75368 5.62240 18588 ft 236 kts 173°
2026-05-06 16:51 59.73836 5.63339 18896 ft 237 kts 173°
2026-05-06 16:51 59.72281 5.64482 19218 ft 239 kts 173°
2026-05-06 16:51 59.70715 5.65650 19546 ft 241 kts 173°
2026-05-06 16:52 59.69144 5.66848 19863 ft 242 kts 173°
2026-05-06 16:52 59.67570 5.68045 20173 ft 244 kts 173°
2026-05-06 16:52 59.65985 5.69288 20496 ft 245 kts 173°
2026-05-06 16:52 59.64388 5.70278 20799 ft 237 kts 182°
2026-05-06 16:53 59.62784 5.71045 21144 ft 236 kts 183°
2026-05-06 16:53 59.61185 5.71817 21531 ft 236 kts 183°
2026-05-06 16:53 59.59613 5.72594 21876 ft 236 kts 182°
2026-05-06 16:53 59.58030 5.73405 22224 ft 235 kts 183°
2026-05-06 16:54 59.56450 5.74219 22571 ft 235 kts 183°
2026-05-06 16:54 59.54879 5.75051 22954 ft 234 kts 182°
2026-05-06 16:54 59.53304 5.75895 23314 ft 234 kts 183°
2026-05-06 16:54 59.51736 5.76749 23659 ft 233 kts 182°
2026-05-06 16:55 59.50179 5.77612 23921 ft 233 kts 182°
2026-05-06 16:55 59.48623 5.78475 24260 ft 231 kts 183°
2026-05-06 16:55 59.47070 5.79337 24506 ft 231 kts 182°
2026-05-06 16:55 59.45523 5.80204 24790 ft 231 kts 182°
2026-05-06 16:56 59.43990 5.80860 25028 ft 211 kts 199°
2026-05-06 16:56 59.42607 5.80559 25313 ft 198 kts 207°
2026-05-06 16:56 59.41182 5.80456 25557 ft 212 kts 196°
2026-05-06 16:56 59.39693 5.80770 25830 ft 217 kts 192°
2026-05-06 16:57 59.38197 5.81145 26110 ft 215 kts 193°
2026-05-06 16:57 59.36713 5.81457 26414 ft 214 kts 193°
2026-05-06 16:57 59.35234 5.81760 26704 ft 214 kts 193°
2026-05-06 16:57 59.33762 5.82060 26982 ft 213 kts 194°
2026-05-06 16:58 59.32289 5.82360 27250 ft 212 kts 194°
2026-05-06 16:58 59.30839 5.82654 27503 ft 212 kts 194°
2026-05-06 16:58 59.29407 5.82949 27751 ft 211 kts 194°
2026-05-06 16:58 59.27943 5.83249 27996 ft 211 kts 194°
2026-05-06 16:59 59.26484 5.83549 28246 ft 210 kts 194°
2026-05-06 16:59 59.25028 5.83846 28494 ft 210 kts 194°
2026-05-06 16:59 59.23577 5.84145 28749 ft 209 kts 194°
2026-05-06 16:59 59.22129 5.84438 28998 ft 209 kts 194°
2026-05-06 17:00 59.20684 5.84736 29241 ft 209 kts 194°
2026-05-06 17:00 59.19241 5.85029 29487 ft 208 kts 194°
2026-05-06 17:00 59.17804 5.85323 29714 ft 208 kts 194°
2026-05-06 17:00 59.16368 5.85612 29932 ft 207 kts 195°
2026-05-06 17:01 59.14953 5.85894 30156 ft 207 kts 194°
2026-05-06 17:01 59.13520 5.86197 30349 ft 207 kts 194°
2026-05-06 17:01 59.12083 5.86492 30547 ft 207 kts 194°
2026-05-06 17:01 59.10648 5.86784 30733 ft 207 kts 194°
2026-05-06 17:02 59.09213 5.87076 30916 ft 207 kts 193°
2026-05-06 17:02 59.07773 5.87368 31033 ft 211 kts 193°
2026-05-06 17:02 59.06282 5.87654 31044 ft 220 kts 192°
2026-05-06 17:02 59.04728 5.87971 31050 ft 228 kts 191°
2026-05-06 17:03 59.03117 5.88303 31053 ft 236 kts 191°
2026-05-06 17:03 59.01483 5.88637 31054 ft 243 kts 191°
2026-05-06 17:03 58.99775 5.88985 31052 ft 249 kts 190°
2026-05-06 17:03 58.98035 5.89339 31054 ft 254 kts 189°
2026-05-06 17:04 58.96260 5.89700 31050 ft 259 kts 189°
2026-05-06 17:04 58.94456 5.90065 31052 ft 263 kts 189°
2026-05-06 17:04 58.92618 5.90433 31054 ft 267 kts 188°
2026-05-06 17:04 58.90761 5.90812 31055 ft 270 kts 188°
2026-05-06 17:05 58.88886 5.91189 31052 ft 272 kts 188°
2026-05-06 17:05 58.86993 5.91572 31050 ft 275 kts 188°
2026-05-06 17:05 58.85082 5.91953 31056 ft 277 kts 188°
2026-05-06 17:05 58.83154 5.92332 31051 ft 280 kts 188°
2026-05-06 17:06 58.81207 5.92725 31049 ft 282 kts 187°
2026-05-06 17:06 58.79246 5.93120 31045 ft 284 kts 187°
2026-05-06 17:06 58.77280 5.93519 31046 ft 285 kts 187°
2026-05-06 17:06 58.75319 5.93907 31044 ft 287 kts 187°
2026-05-06 17:07 58.73319 5.94303 31041 ft 289 kts 187°
2026-05-06 17:07 58.71307 5.94706 31038 ft 291 kts 187°
2026-05-06 17:07 58.69286 5.95104 31038 ft 293 kts 187°
2026-05-06 17:07 58.67250 5.95508 31031 ft 294 kts 187°
2026-05-06 17:08 58.65208 5.95914 31030 ft 296 kts 186°
2026-05-06 17:08 58.63180 5.96316 31024 ft 297 kts 186°
2026-05-06 17:08 58.61120 5.96722 31026 ft 297 kts 186°
2026-05-06 17:08 58.59075 5.97134 31022 ft 294 kts 186°
2026-05-06 17:09 58.57033 5.97536 31019 ft 294 kts 186°
2026-05-06 17:09 58.54984 5.97934 31016 ft 295 kts 186°
2026-05-06 17:09 58.52945 5.98340 31016 ft 295 kts 186°
2026-05-06 17:09 58.50901 5.98746 31015 ft 295 kts 186°
2026-05-06 17:10 58.48888 5.99139 31012 ft 295 kts 186°
2026-05-06 17:10 58.46845 5.99536 31014 ft 295 kts 186°
2026-05-06 17:10 58.44806 5.99934 31014 ft 295 kts 186°
2026-05-06 17:10 58.42765 6.00340 31009 ft 295 kts 186°
2026-05-06 17:11 58.40714 6.00745 31011 ft 295 kts 186°
2026-05-06 17:11 58.38671 6.01143 31009 ft 295 kts 186°
2026-05-06 17:11 58.36627 6.01541 31009 ft 295 kts 186°
2026-05-06 17:11 58.34586 6.01940 31005 ft 295 kts 186°
2026-05-06 17:12 58.32546 6.02337 31008 ft 295 kts 185°
2026-05-06 17:12 58.30536 6.02729 31007 ft 295 kts 185°
2026-05-06 17:12 58.28491 6.03126 31008 ft 295 kts 185°
2026-05-06 17:12 58.26451 6.03523 31005 ft 294 kts 185°
2026-05-06 17:13 58.24407 6.03918 31003 ft 296 kts 185°
2026-05-06 17:13 58.22352 6.04314 31006 ft 297 kts 185°
2026-05-06 17:13 58.20296 6.04711 31006 ft 298 kts 185°
2026-05-06 17:13 58.18228 6.05111 31008 ft 299 kts 185°
2026-05-06 17:14 58.16153 6.05511 31002 ft 300 kts 185°
2026-05-06 17:14 58.11987 6.06312 31007 ft 302 kts 185°
2026-05-06 17:15 58.07786 6.07118 31004 ft 304 kts 185°
2026-05-06 17:15 58.03577 6.07926 31003 ft 304 kts 185°
2026-05-06 17:16 57.99413 6.08723 31010 ft 301 kts 185°
2026-05-06 17:16 57.95234 6.09517 31007 ft 301 kts 185°
2026-05-06 17:17 57.91059 6.10313 31003 ft 301 kts 185°
2026-05-06 17:17 57.86882 6.11106 31009 ft 302 kts 185°
2026-05-06 17:18 57.82729 6.11894 31006 ft 302 kts 185°
2026-05-06 17:18 57.78551 6.12685 31007 ft 302 kts 185°
2026-05-06 17:19 57.74369 6.13474 31003 ft 302 kts 184°
2026-05-06 17:19 57.70192 6.14261 31007 ft 302 kts 184°
2026-05-06 17:20 57.66014 6.15046 31005 ft 302 kts 184°
2026-05-06 17:20 57.61839 6.15828 31009 ft 302 kts 184°
2026-05-06 17:21 57.57661 6.16610 31005 ft 301 kts 184°
2026-05-06 17:21 57.53514 6.17382 31010 ft 301 kts 184°
2026-05-06 17:22 57.49335 6.18158 31006 ft 301 kts 184°
2026-05-06 17:22 57.45163 6.18932 31009 ft 301 kts 184°
2026-05-06 17:23 57.40991 6.19703 31008 ft 301 kts 184°
2026-05-06 17:23 57.36816 6.20473 31005 ft 301 kts 184°
2026-05-06 17:23 57.34757 6.20853 31005 ft 300 kts 184°
2026-05-06 17:24 57.32678 6.21236 31007 ft 301 kts 184°
2026-05-06 17:24 57.28516 6.22000 31004 ft 300 kts 184°
2026-05-06 17:24 57.26430 6.22383 31004 ft 300 kts 183°
2026-05-06 17:25 57.24352 6.22763 31005 ft 300 kts 183°
2026-05-06 17:25 57.22271 6.23144 31004 ft 300 kts 183°
2026-05-06 17:25 57.20190 6.23525 31011 ft 300 kts 183°
2026-05-06 17:25 57.18112 6.23906 30997 ft 300 kts 183°
2026-05-06 17:26 57.16033 6.24286 31007 ft 300 kts 183°
2026-05-06 17:26 57.13951 6.24666 31003 ft 300 kts 183°
2026-05-06 17:26 57.11865 6.25046 31010 ft 300 kts 183°
2026-05-06 17:26 57.09817 6.25419 31006 ft 300 kts 183°
2026-05-06 17:27 57.07718 6.25801 31006 ft 299 kts 183°
2026-05-06 17:27 57.05666 6.26173 31004 ft 299 kts 183°
2026-05-06 17:27 57.03589 6.26551 31009 ft 299 kts 183°
2026-05-06 17:27 57.01518 6.26926 31006 ft 299 kts 183°
2026-05-06 17:28 56.99447 6.27301 31005 ft 299 kts 183°
2026-05-06 17:28 56.97372 6.27676 31010 ft 299 kts 183°
2026-05-06 17:28 56.95303 6.28050 31013 ft 299 kts 183°
2026-05-06 17:28 56.93235 6.28424 31007 ft 299 kts 183°
2026-05-06 17:29 56.91167 6.28796 31008 ft 298 kts 183°
2026-05-06 17:29 56.89127 6.29163 31006 ft 298 kts 183°
2026-05-06 17:29 56.87062 6.29534 31009 ft 298 kts 183°
2026-05-06 17:29 56.84994 6.29904 31005 ft 298 kts 182°
2026-05-06 17:30 56.82930 6.30274 31006 ft 298 kts 182°
2026-05-06 17:30 56.80866 6.30643 31007 ft 298 kts 182°
2026-05-06 17:30 56.79472 6.30892 31013 ft 298 kts 182°
2026-05-06 17:30 56.77410 6.31260 31012 ft 298 kts 182°
2026-05-06 17:31 56.75368 6.31624 31009 ft 297 kts 182°
2026-05-06 17:31 56.73311 6.31991 31006 ft 297 kts 182°
2026-05-06 17:31 56.71251 6.32358 31011 ft 297 kts 182°
2026-05-06 17:31 56.69191 6.32724 31010 ft 297 kts 182°
2026-05-06 17:32 56.67135 6.33089 31010 ft 297 kts 182°
2026-05-06 17:32 56.65077 6.33454 31008 ft 297 kts 182°
2026-05-06 17:32 56.63002 6.33822 31011 ft 297 kts 182°
2026-05-06 17:32 56.60965 6.34183 31010 ft 297 kts 182°
2026-05-06 17:33 56.58908 6.34546 31009 ft 296 kts 182°
2026-05-06 17:33 56.56879 6.34905 31007 ft 296 kts 182°
2026-05-06 17:33 56.54831 6.35266 31010 ft 296 kts 182°
2026-05-06 17:33 56.52778 6.35629 31009 ft 296 kts 182°
2026-05-06 17:34 56.50728 6.35991 31007 ft 296 kts 182°
2026-05-06 17:34 56.48677 6.36353 31008 ft 296 kts 182°
2026-05-06 17:34 56.46623 6.36714 31013 ft 296 kts 182°
2026-05-06 17:34 56.44585 6.37072 31011 ft 295 kts 182°
2026-05-06 17:35 56.42535 6.37433 31010 ft 295 kts 182°
2026-05-06 17:35 56.40481 6.37793 31007 ft 295 kts 182°
2026-05-06 17:35 56.38439 6.38151 31012 ft 295 kts 182°
2026-05-06 17:36 56.34381 6.38861 31008 ft 295 kts 182°
2026-05-06 17:36 56.32343 6.39217 31007 ft 295 kts 182°
2026-05-06 17:36 56.30299 6.39573 31013 ft 295 kts 182°
2026-05-06 17:36 56.28257 6.39930 31009 ft 295 kts 182°
2026-05-06 17:37 56.26212 6.40286 31009 ft 295 kts 182°
2026-05-06 17:37 56.24167 6.40642 31008 ft 295 kts 182°
2026-05-06 17:37 56.22121 6.40997 31008 ft 295 kts 182°
2026-05-06 17:37 56.20082 6.41350 31006 ft 294 kts 182°
2026-05-06 17:38 56.18039 6.41704 31004 ft 294 kts 182°
2026-05-06 17:38 56.16022 6.42052 31008 ft 294 kts 182°
2026-05-06 17:38 56.13955 6.42409 31083 ft 293 kts 181°
2026-05-06 17:38 56.11959 6.42755 31018 ft 290 kts 181°
2026-05-06 17:39 56.09956 6.43100 31006 ft 289 kts 181°
2026-05-06 17:39 56.07947 6.43444 31009 ft 289 kts 181°
2026-05-06 17:39 56.05941 6.43788 31007 ft 290 kts 181°
2026-05-06 17:39 56.03934 6.44133 31005 ft 290 kts 181°
2026-05-06 17:40 56.01928 6.44478 31003 ft 290 kts 181°
2026-05-06 17:40 55.99919 6.44822 31001 ft 290 kts 181°
2026-05-06 17:40 55.97911 6.45166 31000 ft 290 kts 181°
2026-05-06 17:40 55.95903 6.45509 31001 ft 290 kts 181°
2026-05-06 17:41 55.93897 6.45852 31002 ft 290 kts 181°
2026-05-06 17:41 55.91889 6.46195 30999 ft 290 kts 181°
2026-05-06 17:41 55.89905 6.46533 30996 ft 290 kts 181°
2026-05-06 17:41 55.87899 6.46875 31001 ft 290 kts 181°
2026-05-06 17:42 55.85890 6.47218 30996 ft 290 kts 181°
2026-05-06 17:42 55.83881 6.47561 30995 ft 290 kts 181°
2026-05-06 17:42 55.81877 6.47902 30997 ft 290 kts 181°
2026-05-06 17:42 55.79868 6.48243 30998 ft 290 kts 181°
2026-05-06 17:43 55.77862 6.48584 30995 ft 290 kts 181°
2026-05-06 17:43 55.75853 6.48925 30994 ft 290 kts 181°
2026-05-06 17:43 55.73848 6.49265 30996 ft 290 kts 181°
2026-05-06 17:43 55.71838 6.49605 30993 ft 290 kts 181°
2026-05-06 17:44 55.69828 6.49945 30993 ft 290 kts 181°
2026-05-06 17:44 55.67820 6.50284 30994 ft 290 kts 181°
2026-05-06 17:44 55.65812 6.50624 30996 ft 290 kts 181°
2026-05-06 17:44 55.63798 6.50963 30991 ft 290 kts 181°
2026-05-06 17:45 55.61787 6.51301 30991 ft 290 kts 181°
2026-05-06 17:45 55.59801 6.51636 30991 ft 290 kts 181°
2026-05-06 17:45 55.57794 6.51973 30989 ft 290 kts 181°
2026-05-06 17:45 55.55783 6.52311 30992 ft 290 kts 181°
2026-05-06 17:46 55.53775 6.52646 30985 ft 290 kts 181°
2026-05-06 17:46 55.51767 6.52981 30987 ft 290 kts 181°
2026-05-06 17:46 55.49760 6.53317 30986 ft 290 kts 181°
2026-05-06 17:46 55.47751 6.53652 30983 ft 290 kts 181°
2026-05-06 17:47 55.45740 6.53987 30987 ft 290 kts 181°
2026-05-06 17:47 55.43749 6.54319 30987 ft 290 kts 180°
2026-05-06 17:47 55.41741 6.54652 30983 ft 290 kts 180°
2026-05-06 17:47 55.39729 6.54987 30985 ft 290 kts 180°
2026-05-06 17:48 55.37719 6.55321 30982 ft 290 kts 180°
2026-05-06 17:48 55.35708 6.55654 30984 ft 290 kts 180°
2026-05-06 17:48 55.33703 6.55986 30983 ft 290 kts 180°
2026-05-06 17:48 55.31690 6.56320 30981 ft 290 kts 180°
2026-05-06 17:49 55.29683 6.56651 30979 ft 290 kts 180°
2026-05-06 17:49 55.27700 6.56979 30981 ft 290 kts 180°
2026-05-06 17:49 55.25690 6.57311 30977 ft 289 kts 180°
2026-05-06 17:49 55.23681 6.57642 30975 ft 290 kts 180°
2026-05-06 17:50 55.21673 6.57973 30979 ft 290 kts 180°
2026-05-06 17:50 55.19666 6.58305 30978 ft 290 kts 180°
2026-05-06 17:50 55.17657 6.58636 30977 ft 290 kts 180°
2026-05-06 17:50 55.15648 6.58966 30975 ft 290 kts 180°
2026-05-06 17:51 55.13639 6.59296 30977 ft 290 kts 180°
2026-05-06 17:51 55.11629 6.59626 30973 ft 290 kts 180°
2026-05-06 17:51 55.09619 6.59956 30975 ft 290 kts 180°
2026-05-06 17:51 55.07609 6.60285 30973 ft 290 kts 180°
2026-05-06 17:52 55.05598 6.60615 30973 ft 290 kts 180°
2026-05-06 17:52 55.03582 6.60944 30973 ft 290 kts 180°
2026-05-06 17:52 55.01571 6.61273 30969 ft 290 kts 180°
2026-05-06 17:52 54.99585 6.61614 30974 ft 291 kts 179°
2026-05-06 17:53 54.97576 6.62066 30971 ft 291 kts 178°
2026-05-06 17:53 54.95580 6.62501 30969 ft 291 kts 178°
2026-05-06 17:53 54.93564 6.62941 30968 ft 291 kts 178°
2026-05-06 17:53 54.91553 6.63382 30968 ft 291 kts 178°
2026-05-06 17:54 54.89543 6.63822 30966 ft 291 kts 178°
2026-05-06 17:54 54.87532 6.64260 30964 ft 291 kts 178°
2026-05-06 17:54 54.85512 6.64700 30966 ft 291 kts 178°
2026-05-06 17:54 54.83505 6.65137 30968 ft 291 kts 178°
2026-05-06 17:55 54.81490 6.65575 30966 ft 291 kts 178°
2026-05-06 17:55 54.79477 6.66012 30965 ft 292 kts 178°
2026-05-06 17:55 54.77460 6.66451 30964 ft 292 kts 178°
2026-05-06 17:55 54.75446 6.66887 30962 ft 292 kts 178°
2026-05-06 17:56 54.73457 6.67318 30963 ft 292 kts 178°
2026-05-06 17:56 54.71438 6.67755 30965 ft 292 kts 178°
2026-05-06 17:56 54.69422 6.68191 30960 ft 292 kts 178°
2026-05-06 17:56 54.67398 6.68628 30959 ft 292 kts 178°
2026-05-06 17:57 54.65379 6.69064 30960 ft 292 kts 178°
2026-05-06 17:57 54.63351 6.69501 30959 ft 293 kts 178°
2026-05-06 17:57 54.61333 6.69936 30955 ft 293 kts 178°
2026-05-06 17:57 54.59303 6.70373 30956 ft 293 kts 178°
2026-05-06 17:58 54.57302 6.70803 30955 ft 293 kts 178°
2026-05-06 17:58 54.55279 6.71238 30955 ft 293 kts 178°
2026-05-06 17:58 54.53224 6.71681 30954 ft 293 kts 178°
2026-05-06 17:58 54.51198 6.72116 30953 ft 293 kts 178°
2026-05-06 17:59 54.49171 6.72550 30957 ft 293 kts 178°
2026-05-06 17:59 54.47146 6.72984 30953 ft 294 kts 178°
2026-05-06 17:59 54.45109 6.73420 30948 ft 294 kts 178°
2026-05-06 17:59 54.43080 6.73854 30950 ft 294 kts 178°
2026-05-06 18:00 54.41050 6.74288 30949 ft 294 kts 178°
2026-05-06 18:00 54.39018 6.74721 30950 ft 294 kts 178°
2026-05-06 18:00 54.36986 6.75154 30949 ft 294 kts 178°
2026-05-06 18:00 54.34983 6.75580 30947 ft 294 kts 178°
2026-05-06 18:01 54.32950 6.76013 30945 ft 294 kts 177°
2026-05-06 18:01 54.30915 6.76446 30950 ft 294 kts 177°
2026-05-06 18:01 54.28884 6.76877 30950 ft 294 kts 177°
2026-05-06 18:01 54.26845 6.77309 30951 ft 295 kts 177°
2026-05-06 18:02 54.24810 6.77740 30946 ft 295 kts 177°
2026-05-06 18:02 54.22773 6.78171 30944 ft 295 kts 177°
2026-05-06 18:02 54.20739 6.78599 30944 ft 295 kts 177°
2026-05-06 18:02 54.18698 6.79030 30944 ft 295 kts 177°
2026-05-06 18:03 54.16663 6.79459 30941 ft 295 kts 177°
2026-05-06 18:03 54.14624 6.79888 30940 ft 295 kts 177°
2026-05-06 18:03 54.12588 6.80316 30939 ft 295 kts 177°
2026-05-06 18:03 54.10579 6.80738 30941 ft 295 kts 177°
2026-05-06 18:04 54.08538 6.81166 30939 ft 295 kts 177°
2026-05-06 18:04 54.06499 6.81594 30937 ft 295 kts 177°
2026-05-06 18:04 54.04459 6.82021 30936 ft 296 kts 177°
2026-05-06 18:04 54.02411 6.82449 30937 ft 296 kts 177°
2026-05-06 18:05 54.00362 6.82878 30936 ft 296 kts 177°
2026-05-06 18:05 53.98319 6.83305 30934 ft 296 kts 177°
2026-05-06 18:05 53.96275 6.83731 30933 ft 296 kts 177°
2026-05-06 18:05 53.94231 6.84157 30933 ft 296 kts 176°
2026-05-06 18:06 53.92185 6.84583 30936 ft 296 kts 176°
2026-05-06 18:06 53.90141 6.85009 30935 ft 296 kts 176°
2026-05-06 18:06 53.88100 6.85434 30929 ft 296 kts 176°
2026-05-06 18:06 53.86048 6.85861 30927 ft 296 kts 176°
2026-05-06 18:07 53.84006 6.86285 30931 ft 296 kts 177°
2026-05-06 18:07 53.81961 6.86710 30927 ft 296 kts 176°
2026-05-06 18:07 53.79945 6.87127 30929 ft 296 kts 177°
2026-05-06 18:07 53.77900 6.87551 30931 ft 296 kts 177°
2026-05-06 18:08 53.75855 6.87974 30936 ft 296 kts 176°
2026-05-06 18:08 53.73811 6.88397 30934 ft 296 kts 177°
2026-05-06 18:08 53.71763 6.88819 30927 ft 296 kts 177°
2026-05-06 18:08 53.69718 6.89241 30927 ft 296 kts 176°
2026-05-06 18:09 53.67667 6.89664 30923 ft 296 kts 176°
2026-05-06 18:09 53.65617 6.90086 30932 ft 296 kts 176°
2026-05-06 18:09 53.63570 6.90507 30924 ft 296 kts 176°
2026-05-06 18:09 53.61525 6.90928 30915 ft 296 kts 176°
2026-05-06 18:10 53.59478 6.91292 30911 ft 294 kts 181°
2026-05-06 18:10 53.57442 6.91044 30925 ft 291 kts 192°
2026-05-06 18:10 53.55502 6.90134 30916 ft 289 kts 203°
2026-05-06 18:10 53.53716 6.88608 30916 ft 288 kts 214°
2026-05-06 18:11 53.52140 6.86627 30912 ft 287 kts 219°
2026-05-06 18:11 53.51075 6.85233 30919 ft 287 kts 219°
2026-05-06 18:11 53.48974 6.82534 30923 ft 287 kts 218°
2026-05-06 18:11 53.47390 6.80485 30927 ft 288 kts 219°
2026-05-06 18:12 53.45806 6.78429 30913 ft 288 kts 219°
2026-05-06 18:12 53.44216 6.76372 30916 ft 288 kts 218°
2026-05-06 18:12 53.42626 6.74321 30917 ft 288 kts 219°
2026-05-06 18:12 53.41552 6.72936 30918 ft 288 kts 218°